Lid_Strength_Index
6 9 11 10 9 7 7 9 9 8 6 7 8 8 7 6 6 6 6 6 5 5 3 3 2 2 2 2 1 1 1 1 1 1 2 2 2 1 1 0 0 0 0 -0
9 10 8 6 7 8 9 9 9 7 6 8 8 8 7 6 6 6 6 6 5 5 4 3 3 2 2 2 2 2 1 1 1 1 1 1 1 1 1 0 -0 -0 -0 0
10 8 6 7 8 8 9 11 9 9 7 7 8 10 9 7 6 5 5 5 5 5 5 4 3 3 2 2 2 2 1 1 1 1 1 1 1 1 1 1 1 0 0 -0
9 7 7 8 8 9 12 7 8 8 10 13 8 13 11 8 7 6 6 6 5 5 4 4 3 3 3 2 2 1 1 1 1 1 1 2 2 3 2 1 1 0 0 0
9 8 8 9 8 8 9 7 8 8 11 13 12 14 12 9 9 7 7 6 5 5 4 4 4 3 2 2 2 1 1 1 1 1 1 1 2 2 1 1 1 1 0 0
9 6 7 8 7 7 6 8 9 10 13 16 13 13 12 10 8 7 6 5 5 5 4 4 3 3 3 2 2 2 2 2 1 1 1 1 2 2 2 2 2 1 1 0
9 8 7 7 9 8 8 11 15 16 16 16 12 13 12 8 6 6 6 6 5 4 4 4 4 3 3 3 2 2 2 2 1 1 1 1 1 1 2 2 2 2 1 1
12 12 8 7 9 10 10 12 15 18 17 15 11 12 10 7 6 6 6 5 5 5 4 4 4 3 3 3 2 2 2 2 2 1 1 1 1 1 1 1 1 1 1 1
12 11 7 7 8 8 10 12 10 14 14 15 13 10 8 6 7 7 7 6 6 6 5 4 4 3 3 3 2 2 2 2 2 2 1 1 1 1 1 1 1 1 1 0
10 12 8 7 7 7 10 9 13 13 16 17 13 12 12 9 8 7 7 6 6 5 5 4 4 3 3 2 2 2 2 2 2 1 1 1 1 1 1 1 1 1 1 0
9 10 10 8 10 10 11 12 12 12 13 16 16 14 9 8 7 7 6 5 6 5 4 4 4 3 3 2 2 2 2 2 2 2 1 1 1 1 1 1 1 1 1 0
8 10 12 10 8 6 8 10 10 13 14 13 14 13 7 7 7 7 6 5 5 4 4 4 3 3 3 3 2 2 2 2 2 1 1 1 1 1 1 1 1 1 1 1
8 11 14 12 10 8 10 10 10 10 11 14 15 14 7 6 6 6 6 6 5 5 4 4 4 4 3 3 3 2 2 2 2 2 2 2 2 1 1 1 1 1 1 1
6 10 12 14 12 10 10 9 8 10 13 13 13 12 9 10 9 8 7 6 6 5 5 5 4 4 3 3 3 3 2 2 2 2 2 2 2 2 1 1 1 1 1 1
8 12 11 10 8 9 9 9 9 10 10 12 11 12 11 10 9 8 7 6 6 6 6 5 5 5 3 3 3 3 2 2 2 2 2 2 2 1 1 1 1 1 1 1
9 11 10 11 9 9 10 9 9 10 10 10 10 12 8 8 7 8 8 7 7 6 6 5 5 4 4 4 3 3 2 2 2 2 2 2 2 2 2 1 1 1 1 1
10 11 12 14 10 10 13 11 11 10 10 11 14 11 7 9 8 8 7 7 7 6 5 5 4 4 4 4 3 3 3 2 2 2 2 2 2 2 2 1 1 2 2 1
9 11 11 14 12 17 12 8 8 9 10 9 9 9 8 8 7 6 6 6 6 5 5 5 4 4 3 3 3 2 2 3 3 2 2 2 2 2 2 2 2 2 1 2
8 10 13 14 14 11 11 9 10 11 11 8 9 8 7 7 6 7 5 5 5 5 4 4 3 3 3 3 2 2 3 2 3 3 3 2 2 2 2 2 2 2 2 2
7 8 11 13 16 17 12 7 6 7 14 7 7 8 8 7 11 9 5 4 4 4 3 3 3 3 3 3 2 3 3 3 3 3 3 2 2 2 2 2 2 2 1 2
11 11 13 13 14 14 9 6 6 15 14 7 6 6 7 9 7 5 4 4 4 3 3 3 3 3 3 2 2 3 3 3 3 2 2 2 2 2 2 2 2 2 2 2
12 13 14 13 15 18 7 7 12 9 7 6 6 6 6 6 5 4 4 4 4 4 3 3 3 3 2 2 2 3 4 2 2 2 2 2 2 2 1 2 2 3 2 3
13 11 13 12 13 8 6 7 5 5 6 6 6 5 5 5 5 5 5 4 4 3 3 3 3 3 2 2 2 3 3 2 2 2 3 3 2 2 2 2 3 4 4 4
9 7 11 10 9 8 6 5 5 5 5 5 4 5 5 5 5 5 5 4 4 3 3 3 3 3 3 2 2 3 2 2 2 2 3 2 2 3 2 2 4 4 4 3
9 8 10 10 9 7 6 6 5 5 4 5 4 4 5 5 5 5 5 4 4 3 3 3 3 3 3 3 2 2 2 2 3 2 2 2 2 2 2 2 2 3 3 3
7 10 11 12 8 8 7 5 4 5 5 4 5 5 4 4 5 4 4 4 4 4 3 3 3 3 3 3 3 2 2 2 3 3 3 3 2 3 2 2 2 7 7 9